• In United Kingdom
  • List of Countries
  • For 7 days
  • Water Temperature
  • Satellite Maps
  • Weather Map
  • Weather Widgets
  • user-avatar
    Login

    Hourly Weather London

    Today, 23 October, Tuesday

    Time Temperature Precipitation Wind Pressure Humidity
    00:00 +7°C° 0 mm 4 mps 775 mmHg 77%
    01:00 +7°C° 0 mm 4 mps 774 mmHg 78%
    02:00 +7°C° 0 mm 4 mps 774 mmHg 79%
    03:00 +7°C° 0 mm 4 mps 774 mmHg 81%
    04:00 +7°C° 0 mm 4 mps 773 mmHg 81%
    05:00 +7°C° 0 mm 5 mps 773 mmHg 82%
    06:00 +7°C° 0 mm 5 mps 773 mmHg 82%
    07:00 +8°C° 0 mm 5 mps 772 mmHg 78%
    08:00 +9°C° 0 mm 6 mps 772 mmHg 73%
    09:00 +10°C° 0 mm 6 mps 772 mmHg 69%
    10:00 +11°C° 0 mm 6 mps 772 mmHg 64%
    11:00 +14°C° 0 mm 7 mps 771 mmHg 59%
    12:00 +15°C° 0 mm 7 mps 771 mmHg 54%
    13:00 +15°C° 0 mm 7 mps 771 mmHg 54%
    14:00 +16°C° 0 mm 6 mps 771 mmHg 55%
    15:00 +16°C° 0 mm 6 mps 770 mmHg 55%
    16:00 +15°C° 0 mm 6 mps 770 mmHg 59%
    17:00 +14°C° 0 mm 6 mps 770 mmHg 64%
    18:00 +13°C° 0 mm 5 mps 770 mmHg 68%
    19:00 +13°C° 0 mm 5 mps 771 mmHg 71%
    20:00 +13°C° 0 mm 5 mps 771 mmHg 73%
    21:00 +13°C° 0 mm 5 mps 771 mmHg 76%
    22:00 +12°C° 0 mm 5 mps 771 mmHg 78%
    23:00 +12°C° 0 mm 5 mps 771 mmHg 81%

    Tomorrow, 24 October, Wednesday

    Time Temperature Precipitation Wind Pressure Humidity
    00:00 +12°C° 0 mm 5 mps 770 mmHg 83%
    01:00 +12°C° 0 mm 5 mps 770 mmHg 84%
    02:00 +10°C° 0 mm 5 mps 770 mmHg 85%
    03:00 +11°C° 0 mm 4 mps 770 mmHg 86%
    04:00 +11°C° 0 mm 4 mps 770 mmHg 87%
    05:00 +10°C° 0 mm 4 mps 770 mmHg 88%
    06:00 +10°C° 0 mm 4 mps 770 mmHg 88%
    07:00 +11°C° 0 mm 4 mps 770 mmHg 85%
    08:00 +11°C° 0 mm 4 mps 770 mmHg 83%
    09:00 +12°C° 0 mm 4 mps 770 mmHg 80%
    10:00 +13°C° 0 mm 4 mps 770 mmHg 75%
    11:00 +14°C° 0 mm 3 mps 770 mmHg 71%
    12:00 +16°C° 0 mm 3 mps 770 mmHg 66%
    13:00 +17°C° 0 mm 3 mps 770 mmHg 65%
    14:00 +17°C° 0 mm 3 mps 770 mmHg 64%
    15:00 +17°C° 0 mm 3 mps 769 mmHg 63%
    16:00 +14°C° 0 mm 3 mps 769 mmHg 68%
    17:00 +13°C° 0 mm 3 mps 769 mmHg 73%
    18:00 +12°C° 0 mm 3 mps 769 mmHg 78%
    19:00 +11°C° 0 mm 3 mps 769 mmHg 80%
    20:00 +10°C° 0 mm 3 mps 769 mmHg 82%
    21:00 +10°C° 0 mm 3 mps 769 mmHg 85%
    22:00 +9°C° 0 mm 3 mps 768 mmHg 86%
    23:00 +9°C° 0 mm 3 mps 768 mmHg 88%

    Day after tomorrow, 25 October, Thursday

    Time Temperature Precipitation Wind Pressure Humidity
    00:00 +8°C° 0 mm 3 mps 768 mmHg 89%
    01:00 +8°C° 0 mm 3 mps 768 mmHg 90%
    02:00 +8°C° 0 mm 3 mps 767 mmHg 91%
    03:00 +7°C° 0 mm 3 mps 767 mmHg 92%
    04:00 +7°C° 0 mm 3 mps 767 mmHg 92%
    05:00 +7°C° 0 mm 3 mps 767 mmHg 93%
    06:00 +7°C° 0 mm 3 mps 766 mmHg 93%
    07:00 +8°C° 0 mm 3 mps 766 mmHg 90%
    08:00 +8°C° 0 mm 3 mps 766 mmHg 87%
    09:00 +9°C° 0 mm 3 mps 766 mmHg 84%
    10:00 +10°C° 0 mm 3 mps 766 mmHg 78%
    11:00 +12°C° 0 mm 3 mps 766 mmHg 72%
    12:00 +13°C° 0 mm 3 mps 765 mmHg 66%
    13:00 +13°C° 0 mm 3 mps 765 mmHg 66%
    14:00 +13°C° 0 mm 3 mps 764 mmHg 65%
    15:00 +13°C° 0 mm 3 mps 764 mmHg 65%
    16:00 +12°C° 0 mm 3 mps 764 mmHg 70%
    17:00 +11°C° 0 mm 3 mps 763 mmHg 75%
    18:00 +10°C° 0 mm 3 mps 763 mmHg 80%
    19:00 +10°C° 0 mm 2 mps 763 mmHg 82%
    20:00 +9°C° 0 mm 2 mps 763 mmHg 83%
    21:00 +9°C° 0 mm 2 mps 763 mmHg 85%
    22:00 +8°C° 0 mm 2 mps 762 mmHg 86%
    23:00 +8°C° 0 mm 2 mps 762 mmHg 87%

    26 October, Friday

    Time Temperature Precipitation Wind Pressure Humidity
    00:00 +8°C° 0 mm 3 mps 761 mmHg 88%
    01:00 +7°C° 0 mm 3 mps 761 mmHg 89%
    02:00 +7°C° 0 mm 3 mps 760 mmHg 89%
    03:00 +7°C° 0 mm 3 mps 760 mmHg 89%
    04:00 +6°C° 0 mm 4 mps 759 mmHg 90%
    05:00 +6°C° 0 mm 4 mps 759 mmHg 90%
    06:00 +6°C° 0 mm 4 mps 758 mmHg 90%
    07:00 +7°C° 0 mm 5 mps 758 mmHg 87%
    08:00 +8°C° 0 mm 5 mps 758 mmHg 83%
    09:00 +9°C° 0 mm 6 mps 758 mmHg 80%
    10:00 +9°C° 0.1 mm 6 mps 758 mmHg 73%
    11:00 +9°C° 0.1 mm 6 mps 758 mmHg 66%
    12:00 +9°C° 0.1 mm 6 mps 758 mmHg 59%
    13:00 +9°C° 0 mm 6 mps 757 mmHg 56%
    14:00 +10°C° 0 mm 6 mps 757 mmHg 54%
    15:00 +10°C° 0 mm 6 mps 757 mmHg 51%
    16:00 +9°C° 0 mm 6 mps 758 mmHg 55%
    17:00 +8°C° 0 mm 6 mps 758 mmHg 60%
    18:00 +7°C° 0 mm 5 mps 759 mmHg 64%
    19:00 +6°C° 0 mm 5 mps 759 mmHg 65%
    20:00 +6°C° 0 mm 5 mps 760 mmHg 65%
    21:00 +5°C° 0 mm 5 mps 760 mmHg 66%
    22:00 +4°C° 0 mm 6 mps 760 mmHg 66%
    23:00 +4°C° 0 mm 6 mps 761 mmHg 67%

    27 October, Saturday

    Time Temperature Precipitation Wind Pressure Humidity
    00:00 +4°C° 0 mm 6 mps 761 mmHg 68%
    01:00 +3°C° 0 mm 6 mps 761 mmHg 67%
    02:00 +3°C° 0 mm 6 mps 761 mmHg 66%
    03:00 +2°C° 0 mm 6 mps 761 mmHg 65%
    04:00 +2°C° 0 mm 6 mps 761 mmHg 65%
    05:00 +2°C° 0 mm 6 mps 761 mmHg 64%
    06:00 +1°C° 0 mm 6 mps 761 mmHg 64%
    07:00 +2°C° 0 mm 6 mps 762 mmHg 61%
    08:00 +2°C° 0 mm 6 mps 762 mmHg 58%
    09:00 +3°C° 0 mm 6 mps 762 mmHg 55%
    10:00 +4°C° 0 mm 6 mps 762 mmHg 51%
    11:00 +4°C° 0 mm 6 mps 762 mmHg 47%
    12:00 +5°C° 0 mm 6 mps 762 mmHg 42%
    13:00 +5°C° 0 mm 6 mps 761 mmHg 43%
    14:00 +5°C° 0 mm 6 mps 761 mmHg 43%
    15:00 +5°C° 0 mm 6 mps 761 mmHg 44%
    16:00 +4°C° 0.3 mm 6 mps 761 mmHg 51%
    17:00 +3°C° 0.3 mm 6 mps 761 mmHg 58%
    18:00 +3°C° 0.3 mm 6 mps 761 mmHg 64%
    19:00 +3°C° 0.2 mm 7 mps 761 mmHg 64%
    20:00 +3°C° 0.2 mm 7 mps 761 mmHg 63%
    21:00 +1°C° 0.2 mm 8 mps 761 mmHg 63%
    22:00 +2°C° 0 mm 7 mps 761 mmHg 63%
    23:00 +2°C° 0 mm 7 mps 760 mmHg 64%

    28 October, Sunday

    Time Temperature Precipitation Wind Pressure Humidity
    00:00 0°C° 0 mm 7 mps 760 mmHg 64%
    01:00 0°C° 0 mm 7 mps 760 mmHg 67%
    02:00 0°C° 0 mm 7 mps 760 mmHg 70%
    03:00 0°C° 0 mm 7 mps 760 mmHg 73%
    04:00 0°C° 0 mm 7 mps 760 mmHg 74%
    05:00 +2°C° 0 mm 7 mps 760 mmHg 75%
    06:00 +2°C° 0 mm 7 mps 760 mmHg 77%
    07:00 +3°C° 0 mm 7 mps 760 mmHg 75%
    08:00 +4°C° 0 mm 7 mps 760 mmHg 73%
    09:00 +5°C° 0 mm 7 mps 760 mmHg 71%
    10:00 +6°C° 0.1 mm 7 mps 761 mmHg 66%
    11:00 +8°C° 0.1 mm 7 mps 761 mmHg 61%
    12:00 +9°C° 0.1 mm 7 mps 761 mmHg 56%
    13:00 +9°C° 0.2 mm 6 mps 761 mmHg 57%
    14:00 +9°C° 0.2 mm 6 mps 761 mmHg 58%
    15:00 +8°C° 0.2 mm 5 mps 761 mmHg 59%
    16:00 +7°C° 0.1 mm 5 mps 762 mmHg 64%
    17:00 +6°C° 0.1 mm 4 mps 762 mmHg 68%
    18:00 +5°C° 0.1 mm 4 mps 762 mmHg 73%
    19:00 +5°C° 0 mm 4 mps 762 mmHg 74%
    20:00 +4°C° 0 mm 3 mps 762 mmHg 76%
    21:00 +4°C° 0 mm 3 mps 762 mmHg 77%
    22:00 +4°C° 0 mm 3 mps 762 mmHg 78%
    23:00 +3°C° 0 mm 3 mps 762 mmHg 79%

    29 October, Monday

    Time Temperature Precipitation Wind Pressure Humidity
    00:00 +4°C° 0 mm 2 mps 762 mmHg 79%
    01:00 +4°C° 0 mm 2 mps 761 mmHg 80%
    02:00 +4°C° 0 mm 2 mps 761 mmHg 80%
    03:00 +4°C° 0 mm 1 mps 760 mmHg 81%
    04:00 +4°C° 0 mm 1 mps 760 mmHg 81%
    05:00 +4°C° 0 mm 1 mps 759 mmHg 81%
    06:00 +4°C° 0 mm 1 mps 759 mmHg 81%
    07:00 +5°C° 0 mm 1 mps 758 mmHg 77%
    08:00 +6°C° 0 mm 1 mps 758 mmHg 73%
    09:00 +6°C° 0 mm 2 mps 757 mmHg 69%
    10:00 +7°C° 0 mm 2 mps 756 mmHg 65%
    11:00 +8°C° 0 mm 3 mps 755 mmHg 60%
    12:00 +9°C° 0 mm 3 mps 755 mmHg 56%
    13:00 +8°C° 0 mm 4 mps 754 mmHg 57%
    14:00 +8°C° 0 mm 4 mps 753 mmHg 57%
    15:00 +8°C° 0 mm 4 mps 752 mmHg 58%
    16:00 +7°C° 0 mm 4 mps 751 mmHg 61%
    17:00 +6°C° 0 mm 5 mps 751 mmHg 64%
    18:00 +5°C° 0 mm 5 mps 750 mmHg 67%
    19:00 +5°C° 0 mm 5 mps 749 mmHg 65%
    20:00 +4°C° 0 mm 6 mps 749 mmHg 63%
    21:00 +4°C° 0 mm 6 mps 748 mmHg 61%
    22:00 +4°C° 0 mm 6 mps 747 mmHg 60%
    23:00 +3°C° 0 mm 6 mps 746 mmHg 59%
    Show more